CPA603 VHHH-VNKT

Flight info

Callsign CPA603
Flight time N/A
Altitude 38000
Route PECAN V10 SIKOU/K0898S1160 A202 ASSAD/K0896F380 A206 NALAO/N0485F380 A206 LPB B465 MDY/N0482F400 B465 CTG G463 ROMEO ROMEO3R
Aircraft A346/H-SDE2E3FGHIJ3J4J5M1RWXY/LB1D1

Departure

Time 2026-05-07 18:20
Airport Hong Kong International Airport (VHHH)

Arrival

Time N/A
Airport Tribhuvan International Airport (VNKT)
Time Latitude Longitude Altitude Speed Heading
2026-05-07 17:50 22.31509 113.92203 41 ft 0 kts 128°
2026-05-07 18:08 22.31539 113.92161 37 ft 0 kts 128°
2026-05-07 18:08 22.31556 113.92139 37 ft 0 kts 128°
2026-05-07 18:08 22.31567 113.92123 38 ft 0 kts 128°
2026-05-07 18:10 22.31565 113.92125 41 ft 1 kts 128°
2026-05-07 18:10 22.31562 113.92130 41 ft 0 kts 128°
2026-05-07 18:11 22.31550 113.92140 39 ft 3 kts 157°
2026-05-07 18:11 22.31541 113.92137 41 ft 1 kts 223°
2026-05-07 18:12 22.31539 113.92132 41 ft 1 kts 262°
2026-05-07 18:12 22.31546 113.92113 39 ft 5 kts 297°
2026-05-07 18:12 22.31551 113.92068 41 ft 7 kts 263°
2026-05-07 18:12 22.31533 113.92003 41 ft 10 kts 248°
2026-05-07 18:13 22.31502 113.91923 41 ft 13 kts 248°
2026-05-07 18:13 22.31467 113.91823 41 ft 15 kts 250°
2026-05-07 18:13 22.31429 113.91708 41 ft 18 kts 251°
2026-05-07 18:13 22.31386 113.91572 41 ft 20 kts 251°
2026-05-07 18:14 22.31336 113.91420 41 ft 22 kts 250°
2026-05-07 18:14 22.31281 113.91253 41 ft 24 kts 250°
2026-05-07 18:14 22.31224 113.91074 41 ft 26 kts 251°
2026-05-07 18:14 22.31165 113.90884 41 ft 27 kts 251°
2026-05-07 18:15 22.31108 113.90709 41 ft 19 kts 250°
2026-05-07 18:15 22.31062 113.90568 40 ft 21 kts 252°
2026-05-07 18:15 22.31012 113.90408 40 ft 23 kts 250°
2026-05-07 18:15 22.30956 113.90237 40 ft 25 kts 250°
2026-05-07 18:16 22.30897 113.90055 40 ft 26 kts 250°
2026-05-07 18:16 22.30854 113.89922 41 ft 14 kts 256°
2026-05-07 18:16 22.30902 113.89831 41 ft 16 kts 332°
2026-05-07 18:16 22.30998 113.89791 38 ft 14 kts 339°
2026-05-07 18:17 22.31048 113.89772 38 ft 5 kts 345°
2026-05-07 18:17 22.31082 113.89790 38 ft 7 kts 54°
2026-05-07 18:17 22.31096 113.89821 38 ft 0 kts 68°
2026-05-07 18:18 22.31097 113.89822 38 ft 0 kts 68°
2026-05-07 18:19 22.31153 113.89982 38 ft 55 kts 71°
2026-05-07 18:19 22.31350 113.90606 40 ft 117 kts 71°
2026-05-07 18:19 22.31683 113.91627 41 ft 168 kts 70°
2026-05-07 18:19 22.32107 113.92907 405 ft 184 kts 71°
2026-05-07 18:20 22.32541 113.94202 1082 ft 183 kts 71°
2026-05-07 18:20 22.32988 113.95522 1756 ft 186 kts 71°
2026-05-07 18:20 22.33402 113.96875 2260 ft 193 kts 77°
2026-05-07 18:20 22.33665 113.98330 2671 ft 206 kts 82°
2026-05-07 18:21 22.33899 113.99919 3029 ft 222 kts 82°
2026-05-07 18:21 22.34156 114.01628 3362 ft 239 kts 81°
2026-05-07 18:21 22.34392 114.03491 3674 ft 259 kts 92°
2026-05-07 18:21 22.33881 114.05393 4058 ft 272 kts 125°
2026-05-07 18:22 22.32604 114.06898 4797 ft 272 kts 136°
2026-05-07 18:22 22.31686 114.07830 5286 ft 274 kts 142°
2026-05-07 18:22 22.29339 114.08847 6197 ft 277 kts 176°
2026-05-07 18:22 22.27411 114.08878 6901 ft 279 kts 183°
2026-05-07 18:23 22.25449 114.08802 7612 ft 283 kts 183°
2026-05-07 18:23 22.23469 114.08730 8345 ft 286 kts 183°
2026-05-07 18:23 22.21496 114.08674 9079 ft 289 kts 183°
2026-05-07 18:23 22.19473 114.08637 9803 ft 293 kts 181°
2026-05-07 18:24 22.17438 114.08968 10355 ft 303 kts 161°
2026-05-07 18:24 22.15593 114.10180 10657 ft 322 kts 137°
2026-05-07 18:24 22.14257 114.12200 10944 ft 341 kts 118°
2026-05-07 18:24 22.13170 114.14553 11266 ft 358 kts 117°
2026-05-07 18:25 22.12045 114.17020 11566 ft 374 kts 117°
2026-05-07 18:25 22.10848 114.19596 11844 ft 391 kts 118°
2026-05-07 18:25 22.09612 114.22217 12244 ft 402 kts 118°
2026-05-07 18:25 22.08173 114.24825 12867 ft 405 kts 127°
2026-05-07 18:26 22.06329 114.27132 13552 ft 407 kts 137°
2026-05-07 18:26 22.04148 114.29086 14157 ft 409 kts 145°
2026-05-07 18:26 22.01835 114.30903 14713 ft 413 kts 146°
2026-05-07 18:26 21.99346 114.32443 15214 ft 415 kts 161°
2026-05-07 18:27 21.96528 114.33076 15756 ft 414 kts 180°
2026-05-07 18:27 21.93693 114.32727 16334 ft 412 kts 198°
2026-05-07 18:27 21.91098 114.31443 16878 ft 410 kts 216°
2026-05-07 18:27 21.89591 114.30209 17254 ft 411 kts 220°
2026-05-07 18:28 21.86595 114.27609 17978 ft 416 kts 220°
2026-05-07 18:28 21.84327 114.25648 18433 ft 420 kts 220°
2026-05-07 18:28 21.82028 114.23674 18874 ft 423 kts 220°
2026-05-07 18:28 21.79717 114.21700 19337 ft 427 kts 220°
2026-05-07 18:29 21.77407 114.19733 19807 ft 430 kts 220°
2026-05-07 18:29 21.75042 114.17723 20267 ft 434 kts 220°
2026-05-07 18:29 21.72663 114.15702 20733 ft 438 kts 220°
2026-05-07 18:29 21.70266 114.13667 21189 ft 441 kts 220°
2026-05-07 18:30 21.67837 114.11623 21630 ft 446 kts 219°
2026-05-07 18:30 21.65204 114.09824 22039 ft 452 kts 211°
2026-05-07 18:30 21.62322 114.08409 22443 ft 458 kts 203°
2026-05-07 18:30 21.59257 114.07408 22851 ft 464 kts 197°
2026-05-07 18:31 21.56102 114.06581 23270 ft 467 kts 195°
2026-05-07 18:31 21.52923 114.05781 23636 ft 471 kts 195°
2026-05-07 18:31 21.49718 114.04971 23966 ft 474 kts 195°
2026-05-07 18:31 21.46532 114.04024 24328 ft 475 kts 201°
2026-05-07 18:32 21.43458 114.02720 24711 ft 475 kts 207°
2026-05-07 18:32 21.40539 114.01074 25093 ft 475 kts 213°
2026-05-07 18:32 21.37784 113.99192 25466 ft 475 kts 216°
2026-05-07 18:32 21.35018 113.97231 25819 ft 477 kts 216°
2026-05-07 18:33 21.32241 113.95250 26152 ft 480 kts 216°
2026-05-07 18:33 21.29452 113.93263 26469 ft 482 kts 216°
2026-05-07 18:33 21.26646 113.91272 26804 ft 484 kts 216°
2026-05-07 18:33 21.23827 113.89278 27125 ft 486 kts 215°
2026-05-07 18:34 21.20982 113.87271 27436 ft 489 kts 215°
2026-05-07 18:34 21.18132 113.85262 27755 ft 491 kts 215°
2026-05-07 18:34 21.15272 113.83246 28063 ft 493 kts 215°
2026-05-07 18:34 21.12464 113.81069 28352 ft 494 kts 222°
2026-05-07 18:35 21.10053 113.78458 28732 ft 491 kts 232°
2026-05-07 18:35 21.08089 113.75487 29232 ft 486 kts 241°
2026-05-07 18:35 21.06620 113.72292 29736 ft 483 kts 250°
2026-05-07 18:35 21.05474 113.68912 30181 ft 481 kts 252°
2026-05-07 18:36 21.04306 113.65288 30578 ft 480 kts 252°
2026-05-07 18:36 21.03222 113.61895 30951 ft 480 kts 252°
2026-05-07 18:36 21.02137 113.58509 31343 ft 480 kts 252°
2026-05-07 18:37 21.01049 113.55125 31754 ft 479 kts 252°
2026-05-07 18:37 20.99964 113.51766 32146 ft 477 kts 252°
2026-05-07 18:37 20.98877 113.48413 32555 ft 476 kts 252°
2026-05-07 18:37 20.97791 113.45067 32965 ft 475 kts 252°
2026-05-07 18:38 20.96705 113.41727 33377 ft 473 kts 252°
2026-05-07 18:38 20.95624 113.38405 33799 ft 472 kts 252°
2026-05-07 18:38 20.94543 113.35088 34171 ft 470 kts 253°
2026-05-07 18:38 20.93465 113.31782 34533 ft 469 kts 253°
2026-05-07 18:39 20.92390 113.28487 34884 ft 468 kts 253°
2026-05-07 18:39 20.91680 113.26311 35127 ft 467 kts 253°
2026-05-07 18:39 20.90596 113.22996 35475 ft 465 kts 253°
2026-05-07 18:39 20.89542 113.19773 35815 ft 464 kts 253°
2026-05-07 18:40 20.88475 113.16513 36149 ft 463 kts 253°
2026-05-07 18:40 20.87408 113.13254 36490 ft 463 kts 253°
2026-05-07 18:40 20.86342 113.09999 36815 ft 463 kts 253°
2026-05-07 18:40 20.85272 113.06740 37073 ft 465 kts 253°
2026-05-07 18:41 20.84199 113.03468 37330 ft 467 kts 253°
2026-05-07 18:41 20.83121 113.00185 37603 ft 467 kts 253°
2026-05-07 18:41 20.82045 112.96904 37860 ft 469 kts 253°
2026-05-07 18:42 20.80239 112.91413 37914 ft 471 kts 253°
2026-05-07 18:42 20.78062 112.84808 37921 ft 471 kts 253°
2026-05-07 18:43 20.75881 112.78198 37924 ft 471 kts 253°
2026-05-07 18:43 20.73693 112.71581 37921 ft 472 kts 253°
2026-05-07 18:44 20.71503 112.64959 37924 ft 472 kts 253°
2026-05-07 18:44 20.69307 112.58332 37920 ft 472 kts 253°
2026-05-07 18:45 20.67107 112.51704 37920 ft 472 kts 253°
2026-05-07 18:45 20.64908 112.45088 37916 ft 473 kts 253°
2026-05-07 18:46 20.62709 112.38485 37922 ft 474 kts 253°
2026-05-07 18:46 20.60494 112.31844 37923 ft 474 kts 253°
2026-05-07 18:47 20.58325 112.25195 37914 ft 473 kts 257°
2026-05-07 18:47 20.57265 112.18304 37923 ft 468 kts 270°
2026-05-07 18:48 20.57739 112.11403 37914 ft 465 kts 283°
2026-05-07 18:48 20.59687 112.04826 37921 ft 465 kts 295°
2026-05-07 18:49 20.62448 111.98626 37920 ft 464 kts 297°
2026-05-07 18:49 20.65278 111.92397 37920 ft 464 kts 297°
2026-05-07 18:50 20.68092 111.86176 37918 ft 465 kts 297°
2026-05-07 18:50 20.70884 111.79983 37924 ft 465 kts 297°
2026-05-07 18:51 20.73711 111.73702 37919 ft 466 kts 296°
2026-05-07 18:51 20.76505 111.67481 37920 ft 466 kts 296°
2026-05-07 18:52 20.79318 111.61211 37922 ft 466 kts 296°
2026-05-07 18:52 20.81439 111.54653 37918 ft 469 kts 283°
2026-05-07 18:53 20.82065 111.47697 37918 ft 472 kts 270°
2026-05-07 18:53 20.81143 111.40727 37918 ft 476 kts 257°
2026-05-07 18:54 20.79020 111.33989 37918 ft 478 kts 252°
2026-05-07 18:54 20.76769 111.27353 37920 ft 478 kts 252°
2026-05-07 18:55 20.74493 111.20623 37922 ft 478 kts 252°
2026-05-07 18:55 20.72252 111.13977 37918 ft 478 kts 252°
2026-05-07 18:56 20.69999 111.07301 37919 ft 477 kts 252°
2026-05-07 18:56 20.67747 111.00629 37917 ft 476 kts 252°
2026-05-07 18:57 20.65493 110.93966 37916 ft 476 kts 252°
2026-05-07 18:57 20.63245 110.87301 37922 ft 476 kts 252°
2026-05-07 18:58 20.61025 110.80677 37920 ft 476 kts 252°
2026-05-07 18:58 20.58784 110.74012 37919 ft 475 kts 253°
2026-05-07 18:59 20.57667 110.70692 37917 ft 475 kts 253°